星链-30940 (STARLINK-30940 )

导读

STARLINK-30940是美国SpaceX公司“星链”星座的一颗低轨通信卫星,于北京时间2023年11月22日发射入轨,运行在约550公里高度的近地轨道。它采用星链v2.0 mini标准化设计,搭载Ku/Ka波段通信载荷与霍尔推进系统,具备自主空间避撞能力,旨在为全球用户提供高速低延迟宽带互联网服务,补全星链全球组网的星座部署,目前卫星处于在轨运行状态。

Basic Information
目录编号:
58409
目录名称:
STARLINK-30940
国际标识:
2023-180H
轨道中心:
EARTH
卫星名称:
星链-30940
卫星全名:
星链-30940 (STARLINK-30940 )
卫星状态:
在轨 (已飞行1017 天)
发射日期:
2023-11-22 UTC
国别 :
美国 (US)
星等 :
--
Orbit Information
数据来源 国际轨道数据 AOE轨道数据
星历时间 2026-09-03T22:52:31+0800
16小时前
查看轨道信息
2026-09-02T17:00:00+0800
1天前
查看轨道信息
半长轴 6861.195km 6861.2km
偏心率 0.0001192 0.0000448
轨道倾角 43.001° 43.000°
近地点辐角 264.166° 306.661°
升交点赤经 342.613° 349.644°
平近点角 95.906° 39.881°
近地点 482.24km 482.755km
远地点 483.876km 483.371km
周期 94.267分钟 94.267分钟
每日圈数 15.275773 15.275756
Detailed Information
固有亮度:
5
最大亮度:
0.3
卫星平台:
Starlink v2.0 mini
覆盖范围:
全球
运营商:
太空探索技术公司
运营商所在国:
美国
制造商(研发单位):
太空探索技术公司
制造商所在国:
美国
使用方式:
暂无
Satellite Introduction
星链(Starlink)计划是由太空探索技术公司(SpaceX)提出的一个巨型低轨卫星互联网星座项目,计划在2019年至2024年间在太空搭建由约1.2万颗卫星组成的“星链”网络,其中1584颗将部署在地球上空550千米处的近地轨道,并从2020年开始工作。该卫星仍在工作。
2D Orbit Map
3D Orbit Map
Orbit Altitude Analysis Chart
Orbit Inclination Analysis Chart
Orbit Comprehensive Analysis Chart
View Comprehensive Chart
Conjunction Data List
Event ID Objects TCA Miss Dist (km) Collision Risk Probability Collision Risk Index (CRI) Action
CDM_260904-205405-840906-397322
2026-09-04T
20:54:58+0000
0.478 km
远距离
1.543864E-4 高风险 0.79
CDM_260905-114905-840906-397321
2026-09-05T
11:49:26+0000
0.768 km
远距离
4.104324E-5 中风险 0.67
CDM_260904-163805-602405-840922
2026-09-04T
16:38:44+0000
1.027 km
极远距离
1.838161E-5 中风险 0.6
CDM_260904-150405-602405-840922
2026-09-04T
15:04:34+0000
1.177 km
极远距离
1.142628E-5 中风险 0.56
CDM_260904-192005-840906-397322
2026-09-04T
19:20:49+0000
1.331 km
极远距离
6.350521E-6 低风险 0.51
CDM_260904-181205-602405-840922
2026-09-04T
18:12:53+0000
1.615 km
极远距离
3.98979E-6 低风险 0.47
CDM_260904-133005-602405-840922
2026-09-04T
13:30:25+0000
1.885 km
极远距离
2.556757E-6 低风险 0.43
CDM_260905-132305-840906-397321
2026-09-05T
13:23:35+0000
2.052 km
极远距离
1.778348E-6 低风险 0.4
CDM_260904-222905-840906-397322
2026-09-04T
22:29:07+0000
2.227 km
极远距离
1.483169E-6 低风险 0.38
CDM_260904-194705-602405-840921
2026-09-04T
19:47:03+0000
2.470 km
极远距离
1.397728E-6 低风险 0.38